Vorticity
nan nan nan nan nan nan nan nan nan nan nan nan nan nan nan nan nan nan nan nan nan nan nan nan nan nan nan nan nan nan nan nan nan
nan 6 6 5 5 6 7 5 4 4 4 4 3 3 4 4 6 7 6 9 7 5 5 5 5 5 5 5 5 5 5 6 nan
nan 7 6 6 6 5 9 9 5 5 5 4 4 4 4 4 7 8 7 9 6 5 5 5 5 5 5 5 5 5 5 5 nan
nan 7 7 6 6 6 9 10 6 6 5 4 5 5 4 4 6 6 10 9 5 5 4 5 5 5 5 5 5 5 5 5 nan
nan 7 7 7 7 6 7 9 7 6 6 6 6 5 6 5 6 7 10 8 5 5 5 5 5 4 5 5 5 5 4 4 nan
nan 9 7 7 7 7 7 8 8 8 8 8 5 5 6 7 6 10 10 7 5 5 5 5 5 5 5 4 5 5 5 5 nan
nan 11 11 10 9 10 10 11 10 5 5 10 8 7 7 7 7 10 13 9 4 5 5 5 5 5 5 5 5 5 5 4 nan
nan 9 10 13 12 10 11 10 10 8 6 7 8 6 6 6 8 10 13 10 5 5 5 5 5 5 5 4 4 5 5 5 nan
nan 7 8 7 11 9 8 9 9 8 7 7 6 6 5 5 7 11 13 11 6 7 6 5 5 5 5 5 5 5 5 5 nan
nan 7 9 7 8 9 8 7 8 8 7 6 7 6 6 4 5 11 16 11 9 7 7 6 5 5 5 5 5 5 5 5 nan
nan 8 9 10 8 8 8 8 7 7 8 7 7 7 7 7 5 7 15 16 9 8 8 7 6 5 5 5 5 6 6 6 nan
nan 8 8 8 8 9 8 7 7 8 8 8 7 9 9 9 9 8 9 16 15 10 8 7 7 6 5 5 5 6 6 7 nan
nan 8 8 7 7 9 9 8 8 8 7 8 8 8 9 10 10 8 9 9 13 15 12 10 9 8 7 6 6 7 7 6 nan
nan 8 7 9 10 8 8 8 9 10 9 9 9 9 7 7 7 6 7 10 8 12 16 13 11 10 9 7 6 6 8 8 nan
nan 8 9 9 8 8 9 9 8 9 10 10 8 9 9 7 6 6 8 7 7 9 10 11 14 15 10 9 8 6 6 8 nan
nan 9 10 10 9 9 7 8 9 7 8 7 10 11 11 8 8 8 9 8 9 7 6 7 9 15 17 12 9 8 7 6 nan
nan 10 12 10 9 9 9 6 7 10 9 4 8 9 11 13 11 9 10 8 8 9 10 9 6 7 14 18 15 10 9 8 nan
nan 13 16 15 11 8 8 8 6 8 7 9 5 9 9 10 13 11 9 10 8 10 11 8 9 9 9 10 15 15 12 9 nan
nan 15 15 17 17 16 8 9 6 8 8 8 7 8 11 6 5 11 11 12 10 9 9 10 11 9 10 11 11 11 11 9 nan
nan nan nan nan nan nan nan nan nan nan nan nan nan nan nan nan nan nan nan nan nan nan nan nan nan nan nan nan nan nan nan nan nan
CAPE
1256 1182 1083 695 657 916 984 993 585 586 358 154 16 0 0 0 0 0 0 0 0 1 0 0 2 4 5 4 3 3 1 1 1
1147 1391 1218 1055 935 944 955 956 611 387 303 0 0 21 0 0 0 0 0 0 0 0 0 1 2 2 3 2 3 1 1 1 1
1528 1534 1446 1477 959 886 1089 1128 733 418 155 59 168 108 0 0 0 0 0 1 0 1 1 1 2 3 4 2 2 2 1 1 1
1409 1554 1558 1428 1496 1455 1237 1274 1181 606 300 456 368 20 0 0 0 0 0 99 0 2 2 1 3 3 2 1 1 0 0 0 0
1035 1104 1099 1442 1307 1036 1186 1114 1111 711 573 553 148 0 0 0 0 0 0 75 21 1 1 1 1 2 1 0 0 0 0 0 0
394 392 533 730 1130 1132 981 1015 954 555 300 320 171 1 0 0 0 0 0 78 39 18 0 1 2 1 0 0 0 0 0 0 0
392 267 169 303 596 819 1079 1056 959 413 30 37 51 0 0 0 0 0 0 118 98 94 1 0 1 2 0 0 0 0 0 0 0
156 83 34 29 72 212 524 681 629 80 8 0 0 0 0 0 0 0 0 264 213 218 10 0 1 2 0 0 0 0 0 0 0
95 0 0 12 83 128 168 206 286 47 8 0 0 0 0 0 0 0 0 211 682 322 178 8 2 2 4 2 0 0 0 0 0
0 3 9 8 86 176 140 78 74 54 20 1 0 0 0 0 0 0 0 3 610 798 503 218 96 12 18 7 3 1 0 0 0
20 28 23 140 176 215 224 138 84 73 38 11 0 0 0 0 0 0 0 0 122 589 849 637 259 164 96 66 62 31 4 2 1
0 1 1 21 109 187 213 170 122 134 73 48 9 0 0 0 0 0 0 0 3 141 770 793 919 736 188 132 105 239 254 183 124
0 0 8 38 48 169 194 160 100 221 264 197 87 34 0 0 0 0 0 0 0 0 172 523 557 957 816 408 290 660 510 453 427
0 0 18 22 55 83 177 139 204 235 170 91 96 8 0 0 1 0 0 0 0 0 0 66 177 276 740 464 297 902 733 695 710
37 13 20 31 0 18 42 90 54 48 45 117 173 91 44 11 18 2 0 0 0 0 0 0 0 10 223 574 472 619 878 831 778
21 30 60 19 34 9 14 23 43 29 13 0 0 16 40 31 28 0 8 0 0 0 0 0 0 0 0 134 332 540 717 971 994
4 0 87 233 80 1 0 10 43 12 22 13 23 1 0 33 44 25 0 0 0 0 0 0 0 0 0 0 28 244 422 547 880
1 0 52 278 178 47 0 1 67 81 168 91 0 0 0 0 40 71 41 54 60 9 0 0 0 0 0 0 0 1 111 375 556
5 3 0 0 296 226 0 26 37 33 63 12 9 1 0 0 0 0 5 59 49 47 15 0 0 0 0 0 0 0 0 117 244
7 3 0 1 0 0 135 91 49 56 30 78 63 7 0 0 38 37 2 0 0 14 20 17 7 0 0 0 0 0 0 54 175